Regional Weather Roundup
Issued by NWS

Home | Current Version | Previous Version | Text Only | Print | Product List | Glossary Off
Versions: 1 2 3 4 5 6 7 8 9 10 11 12 13 14 15 16 17 18 19 20 21 22 23 24 25 26 27 28 29 30 31 32 33 34 35 36 37 38 39 40 41 42 43 44 45 46 47 48 49 50

000
ASUS43 KFSD 192102
RWRSD

WEATHER ROUNDUP FOR SOUTH DAKOTA
NATIONAL WEATHER SERVICE SIOUX FALLS SD
400 PM CDT WED JUL 19 2017

NOTE: "FAIR" INDICATES FEW OR NO CLOUDS BELOW 12,000 FEET WITH NO
SIGNIFICANT WEATHER AND/OR OBSTRUCTIONS TO VISIBILITY.


SDZ001>005-009-010-012>017-192200-
NORTHWEST AND NORTH CENTRAL SOUTH DAKOTA

CITY           SKY/WX    TMP DP  RH WIND       PRES   REMARKS
BUFFALO          N/A     84  61  45 E6        29.96F
FAITH            N/A     87  64  46 VRB6      29.96S
MOBRIDGE       SUNNY     83  69  62 SE13G21   29.91F
$$

SDZ012>016-024>037-041>051-057-063-072>074-192200-
SOUTHWEST AND SOUTH CENTRAL SOUTH DAKOTA

CITY           SKY/WX    TMP DP  RH WIND       PRES   REMARKS
RAPID CTY ARPT CLOUDY    91  63  39 N20G26    29.98F
PIERRE         SUNNY     91  69  48 E15G28    29.87F HX  96
CUSTER         CLOUDY    84  62  47 E18G28    30.14S
ELLSWORTH AFB  MOSUNNY   89  62  39 N20G25    29.98
PHILIP         SUNNY     97  67  37 NE13G24   29.89S HX 101
PINE RIDGE     SUNNY    101  60  25 N22G33    29.92F HX 101
SPEARFISH      LGT RAIN  86  63  45 NE8       30.06F
WINNER         FAIR     102  66  30 SE17G23   29.83F THUNDER HX 106
$$

SDZ004>011-016>023-039-040-192200-
NORTHEAST SOUTH DAKOTA

CITY           SKY/WX    TMP DP  RH WIND       PRES   REMARKS
ABERDEEN       CLOUDY    81  68  64 SE14      29.92F
WATERTOWN      CLOUDY    72  67  84 E12G21    29.94F
BROOKINGS      CLOUDY    77  70  79 E13       29.95F
SISSETON         N/A     75  67  76 S17G24    29.92F
$$

SDZ017-020-022-023-036>040-048>070-192200-
SOUTHEAST SOUTH DAKOTA

CITY           SKY/WX    TMP DP  RH WIND       PRES   REMARKS
SIOUX FALLS    CLOUDY    83  73  72 E10       29.94F
HURON          SUNNY     86  71  60 E12       29.88F
CHAMBERLAIN    SUNNY     99  74  44 E14       29.84F HX 111
MITCHELL       SUNNY     88  75  65 E15       29.87F HX  97
YANKTON        SUNNY     95  75  52 S13       29.87F HX 107
$$

ABBREVIATIONS USED IN REMARKS
   TC - TEMPERATURE IN CELSIUS
  WCI - WIND CHILL INDEX
   HX - HEAT INDEX
  VSB - VISIBILITY





USA.gov is the U.S. government's official web portal to all federal, state and local government web resources and services.